Wetbulb
41.89 41.61 41.53 41.45 41.53 41.92 42.35 42.31 41.65 41.97 42.49 42.64 42.09 41.65 41.25 40.85 40.49 40.69 41.16 41.58 41.46 41.50 41.71 41.83 41.84 41.80 41.69 41.89 41.93 41.85 41.77 41.69 41.56 40.97 40.45 40.49 40.90 40.97 40.82 40.43 39.89 39.35 38.58 37.81 37.25 36.85 36.57 36.10 36.03 36.36 36.52 36.03 35.57 35.20 35.06 35.12 34.53 34.34 34.32 34.53 34.71 34.52 34.16 33.82 34.30 34.33 34.36 34.70 35.75
41.56 41.35 41.26 41.03 41.29 42.05 42.67 42.49 42.26 42.34 42.58 42.98 42.54 42.14 41.70 41.29 41.05 41.05 41.20 41.21 41.52 41.56 41.69 41.85 41.37 41.25 41.57 41.61 41.53 41.41 41.45 41.21 41.13 40.85 40.57 40.60 40.67 40.51 40.20 39.70 39.08 38.45 37.82 37.19 36.71 36.54 36.34 35.75 35.71 36.05 36.34 36.22 35.64 35.08 34.90 34.97 34.38 34.20 34.15 34.04 34.77 35.07 35.23 35.16 35.08 34.92 35.02 35.56 36.08
41.63 41.67 41.89 42.23 42.57 42.67 42.72 42.61 42.30 42.10 42.06 42.35 42.39 42.18 42.02 41.89 41.81 41.73 41.61 41.62 41.82 41.86 41.94 42.02 41.33 41.37 41.77 41.82 41.69 41.49 41.29 41.01 40.81 40.53 40.33 40.17 40.13 39.98 39.58 38.91 38.53 37.86 37.19 36.79 36.39 36.30 36.08 35.44 35.49 35.81 36.22 36.58 35.40 35.08 35.18 35.42 35.08 34.94 34.74 34.52 35.64 36.14 36.42 36.70 36.31 36.31 36.64 37.07 36.57
41.81 41.79 41.81 42.39 42.51 42.39 42.14 42.14 41.70 41.66 41.86 42.26 42.31 42.19 42.19 42.18 42.23 42.27 42.10 41.93 41.97 42.01 41.98 41.98 41.35 41.38 41.74 41.99 41.57 41.17 40.69 40.01 39.94 39.78 39.58 39.27 39.18 38.98 38.68 38.30 38.03 37.66 37.28 36.89 36.52 36.09 35.76 35.51 35.93 36.15 35.99 35.29 34.55 34.91 35.72 36.43 35.58 35.74 36.08 36.08 36.86 36.94 37.02 37.50 37.30 37.39 37.51 37.47 36.90
41.61 41.71 41.86 42.18 42.15 42.06 42.02 41.82 41.82 41.70 41.86 42.02 42.06 42.06 42.06 42.11 42.23 42.27 42.09 41.71 41.81 41.81 41.77 41.40 40.79 40.48 40.62 40.92 40.53 40.06 39.70 39.43 38.68 38.61 38.77 38.45 38.15 37.95 37.75 37.53 37.37 37.22 37.09 36.98 36.73 36.25 35.97 35.98 36.48 36.47 36.05 35.13 36.03 36.40 36.32 36.11 36.01 36.30 36.84 37.64 37.72 37.68 37.68 37.72 37.64 37.57 37.57 37.42 37.19
40.47 40.91 41.33 41.60 42.22 42.39 42.27 42.19 41.94 41.78 41.74 41.90 41.58 41.37 41.41 41.70 41.66 41.37 41.01 40.69 40.72 40.80 40.47 39.57 39.10 38.85 39.02 39.65 39.54 39.39 39.31 39.43 39.00 38.84 38.71 38.55 38.15 37.75 37.40 37.16 37.02 36.94 36.85 36.78 36.73 36.49 36.13 35.97 36.84 36.82 36.63 36.58 36.26 36.24 36.29 36.02 36.46 36.53 36.75 37.27 37.59 37.75 37.71 37.35 37.55 37.56 37.36 36.95 36.62
39.53 39.92 40.51 41.20 41.78 41.90 41.82 41.62 41.61 41.53 41.45 41.37 41.05 40.80 40.83 40.75 40.27 40.03 39.83 39.84 39.93 39.69 39.17 38.59 38.69 38.86 38.91 39.19 39.20 39.20 39.23 39.15 39.08 38.84 38.55 38.13 37.73 37.27 36.87 36.73 36.58 36.32 36.25 36.16 36.27 36.27 36.11 35.63 36.72 37.02 36.82 36.69 37.14 36.56 35.85 36.16 36.21 36.23 36.28 36.43 37.21 37.54 37.38 36.79 37.24 37.32 36.96 36.11 35.68
39.04 39.19 39.63 40.60 41.04 41.08 40.95 40.76 40.68 40.69 40.57 40.45 40.05 39.84 39.66 39.45 39.23 39.27 39.32 39.40 39.34 39.10 38.86 38.74 39.23 39.35 39.20 39.08 39.00 38.96 38.93 38.77 38.65 38.40 38.10 37.85 37.40 36.97 36.57 36.13 35.97 35.98 36.03 36.14 36.16 36.17 36.39 36.60 37.13 37.07 36.89 36.75 37.22 36.91 36.43 35.91 35.62 35.62 35.67 35.77 36.45 36.68 36.85 37.07 36.96 36.83 36.42 35.57 35.42
38.27 38.39 38.88 39.51 40.06 40.28 40.37 40.26 40.16 40.01 39.82 39.54 39.18 38.90 38.77 38.69 38.64 38.73 38.78 38.99 38.80 38.65 38.62 38.81 38.96 39.12 39.08 39.00 38.81 38.66 38.54 38.27 37.77 37.43 37.13 36.75 36.27 36.05 35.89 35.84 35.79 36.00 36.32 36.51 36.63 36.54 36.58 37.10 37.29 37.24 37.19 37.39 37.39 37.26 36.81 35.97 35.54 35.18 35.17 35.43 35.73 35.78 35.89 36.19 35.64 35.57 35.66 35.35 35.10
37.55 37.51 37.62 37.77 38.12 38.54 38.88 39.27 39.43 39.47 39.38 39.06 39.14 38.69 38.04 37.18 37.72 38.18 38.48 38.65 38.15 38.23 38.50 38.65 38.80 38.80 38.69 38.54 38.39 38.09 37.70 37.17 36.56 36.08 35.59 35.31 35.02 34.97 35.09 35.49 35.61 35.96 36.38 36.60 36.79 36.62 36.49 36.85 36.88 36.87 36.87 36.90 36.60 36.31 35.93 35.52 35.08 34.57 34.58 35.42 34.95 34.40 34.26 34.64 34.42 34.46 34.53 34.72 34.53
36.78 36.86 36.88 36.63 36.74 36.82 36.94 37.48 37.59 37.81 38.12 38.25 38.27 38.22 37.96 37.41 37.78 38.05 38.07 37.89 37.93 38.08 38.35 38.53 38.69 38.54 38.16 37.82 37.37 36.83 36.31 35.87 35.57 35.07 34.74 34.57 34.46 34.63 34.91 35.33 35.38 35.61 35.79 35.90 35.67 35.59 35.38 35.38 35.00 34.79 34.81 35.02 34.92 34.70 34.46 34.02 33.80 33.39 33.23 33.73 33.10 32.80 32.71 32.81 33.20 33.44 33.60 33.66 33.45
36.40 36.43 36.54 36.33 36.41 36.51 36.49 36.32 36.33 36.58 36.83 37.19 37.33 37.67 37.89 38.15 38.19 38.00 37.89 38.01 38.05 38.24 38.38 38.44 38.38 37.89 37.26 36.66 36.03 35.44 34.90 34.73 34.38 34.22 34.11 34.16 34.35 34.55 34.70 34.92 34.95 35.06 35.09 35.06 34.60 34.47 34.31 33.74 33.39 33.00 32.79 32.85 33.53 33.69 33.45 32.87 32.70 32.50 32.36 32.32 32.19 32.11 32.10 32.18 32.17 32.63 32.96 32.63 32.69
36.59 36.63 36.58 36.54 36.64 36.67 36.66 36.42 36.52 36.57 36.58 36.63 36.88 37.14 37.60 38.09 38.20 38.24 38.20 38.42 38.20 38.25 38.06 37.60 37.34 36.77 36.16 35.52 35.00 34.62 34.37 34.24 34.08 34.08 34.09 34.31 34.60 34.81 34.92 35.16 35.23 35.23 35.27 35.16 34.58 34.59 34.68 34.22 33.66 33.34 33.07 32.72 33.21 33.16 32.87 32.44 32.20 32.06 31.85 31.69 31.61 31.69 31.73 31.82 31.85 31.81 31.79 31.38 31.79
37.02 36.98 36.97 37.01 37.04 37.12 37.00 37.04 37.09 37.13 36.94 36.82 37.10 37.52 37.93 38.46 38.46 38.45 38.33 38.24 37.75 37.40 36.88 36.45 36.04 35.80 35.62 35.48 35.13 34.84 34.63 34.45 34.44 34.44 34.55 34.87 35.19 35.41 35.48 35.77 35.66 35.62 35.52 35.33 34.41 33.98 33.87 33.78 33.33 33.00 32.81 32.57 32.57 32.46 32.23 32.02 31.76 31.44 31.14 30.94 30.96 31.03 31.26 31.42 31.41 31.22 31.04 30.88 30.87
37.59 37.47 37.51 37.58 37.59 37.55 37.59 37.86 38.05 37.90 37.78 37.59 37.78 38.05 38.33 38.47 38.25 37.92 37.51 37.23 36.64 36.36 36.12 35.83 35.59 35.41 35.44 35.76 35.51 35.18 34.85 34.66 34.62 34.69 34.91 35.10 35.47 35.62 35.62 35.69 35.44 35.29 35.11 34.97 34.15 33.63 33.36 33.07 32.87 32.71 32.59 32.47 32.32 32.22 32.19 32.14 31.79 31.57 31.45 31.30 31.11 31.11 31.23 31.34 31.19 31.23 31.06 30.91 30.88
38.24 38.05 38.01 37.97 38.01 37.93 38.01 38.16 38.24 38.16 37.93 37.71 37.63 37.70 37.68 37.49 37.30 36.88 36.48 36.15 36.01 35.90 35.76 35.37 35.27 35.20 35.26 35.43 35.29 35.03 34.85 34.73 34.73 34.81 34.93 35.27 35.38 35.38 35.35 35.20 34.98 34.72 34.50 34.17 33.80 33.52 33.16 32.82 32.82 32.61 32.47 32.35 32.35 32.23 32.26 32.29 32.18 32.04 31.91 31.79 31.69 31.62 31.65 31.55 31.50 31.48 31.49 31.36 30.98
38.77 38.66 38.39 38.35 38.12 37.90 37.56 37.41 37.26 37.15 37.04 36.82 36.85 36.70 36.70 36.66 36.87 36.66 36.27 35.87 35.83 35.76 35.44 35.13 35.02 35.05 35.05 34.92 34.84 34.77 34.86 34.90 35.02 35.06 35.17 35.25 35.10 34.96 34.84 34.62 34.46 34.19 33.82 33.55 33.43 33.31 33.06 32.73 32.96 32.85 32.62 32.39 32.47 32.42 32.40 32.43 32.51 32.45 32.32 32.24 32.20 32.12 32.07 32.08 32.05 32.10 32.08 31.92 31.33
38.69 38.39 38.05 37.63 37.19 36.74 36.52 36.38 36.27 36.27 36.34 36.45 36.51 36.59 36.70 36.91 37.04 36.79 36.51 36.05 35.94 35.73 35.34 35.09 34.98 34.96 34.93 34.78 34.70 34.81 34.94 35.08 35.12 35.16 35.12 35.05 34.85 34.62 34.43 34.19 33.97 33.81 33.57 33.37 33.20 33.07 33.02 33.18 33.33 33.30 33.10 32.79 32.82 32.88 32.84 32.82 32.82 32.66 32.54 32.54 32.46 32.51 32.59 32.66 32.59 32.57 32.49 31.98 31.44
37.50 37.24 36.95 36.63 36.34 36.20 36.23 36.41 36.52 36.66 36.80 36.80 36.92 37.06 37.25 37.42 37.34 37.11 36.68 36.12 35.73 35.54 35.36 35.22 35.11 35.05 34.92 34.87 34.76 34.80 34.87 34.98 34.94 34.79 34.75 34.63 34.36 34.19 34.03 33.94 33.74 33.61 33.36 33.32 33.23 33.21 33.24 33.40 33.46 33.31 33.15 33.23 33.18 33.14 33.04 32.95 32.83 32.79 32.71 32.71 32.85 33.07 33.29 33.42 33.22 32.90 32.28 31.74 31.09
36.83 36.72 36.73 37.02 37.09 37.21 37.25 37.33 37.40 37.51 37.48 37.55 37.56 37.63 37.67 37.74 37.54 37.06 36.47 36.07 35.87 35.76 35.59 35.40 35.29 35.12 34.95 34.78 34.66 34.61 34.63 34.83 34.68 34.48 34.27 34.26 34.05 33.99 33.79 33.62 33.48 33.39 33.26 33.42 33.50 33.45 33.40 33.44 33.37 33.18 33.04 32.98 32.88 32.75 32.65 32.69 32.65 32.65 32.67 33.01 33.41 33.50 33.44 33.25 32.98 32.29 31.48 30.66 30.33
37.15 37.08 37.33 37.93 38.05 38.01 37.97 38.12 38.20 38.16 38.07 38.15 38.19 38.11 38.12 37.82 37.37 36.81 36.37 36.09 35.99 35.79 35.45 35.04 34.79 34.71 34.56 34.36 34.32 34.25 34.23 34.45 34.37 34.16 34.14 34.05 33.78 33.74 33.66 33.61 33.44 33.44 33.52 33.52 33.52 33.45 33.31 33.34 33.17 33.07 32.96 32.68 32.54 32.40 32.37 32.44 32.72 32.94 33.20 33.39 33.18 32.64 31.96 31.44 31.40 31.00 30.56 30.09 30.02
37.80 37.90 38.08 38.36 38.51 38.50 38.53 38.60 38.63 38.69 38.59 38.61 38.60 38.38 38.23 37.75 37.22 36.74 36.38 36.04 35.84 35.44 35.03 34.74 34.35 34.14 33.85 33.74 33.69 33.69 33.80 33.95 33.90 33.95 33.99 33.91 33.83 33.79 33.74 33.74 33.30 33.07 32.99 33.01 33.09 33.12 33.02 32.89 32.86 32.63 32.45 32.40 32.19 32.11 32.17 32.44 33.02 33.12 32.83 32.46 31.93 31.50 31.35 31.31 31.33 31.25 31.12 30.82 30.57
38.01 38.32 38.42 38.70 38.69 38.54 38.39 38.65 38.83 38.89 38.76 38.67 38.57 38.34 37.93 37.59 36.96 36.19 35.55 35.02 34.61 34.36 34.10 34.00 33.86 33.70 33.43 33.23 33.14 33.22 33.26 33.33 33.43 33.47 33.49 33.38 33.34 33.30 33.33 33.38 32.96 32.67 32.62 33.05 32.97 32.73 32.61 32.56 32.41 32.20 32.06 32.05 31.75 31.68 31.93 32.54 32.81 32.55 32.14 31.74 31.65 31.90 32.30 32.58 32.13 32.10 32.11 31.64 31.43
38.20 38.48 38.63 38.87 38.80 38.86 38.78 38.97 38.91 38.77 38.53 38.35 38.13 37.92 37.44 36.74 35.47 34.42 33.72 33.54 33.39 33.31 33.14 33.10 33.36 33.41 33.38 33.22 33.14 33.09 32.96 32.75 32.71 32.63 32.63 32.65 32.78 32.73 32.71 32.89 32.78 32.66 32.81 33.28 33.64 33.63 33.35 32.97 32.64 32.57 32.68 32.62 32.06 31.82 31.77 31.64 32.38 32.48 32.13 31.78 32.03 32.25 32.38 32.55 32.33 32.46 32.53 32.37 32.14
38.23 38.50 38.69 38.94 39.06 39.05 39.00 38.85 38.51 38.29 38.16 37.91 37.69 36.91 35.81 34.41 33.45 32.90 32.73 32.70 32.84 32.88 32.98 32.91 33.04 33.14 33.30 33.25 33.20 33.04 32.69 32.25 32.12 32.01 31.97 31.97 32.02 32.06 32.19 32.57 32.66 32.91 33.15 33.38 34.92 35.75 35.63 34.49 34.01 33.74 33.43 33.05 32.02 31.40 31.12 31.01 31.59 31.94 31.97 31.88 31.81 31.66 31.53 31.39 31.66 31.89 32.00 32.05 32.01
38.41 38.51 38.59 38.93 38.94 38.82 38.58 38.33 38.21 37.90 37.47 36.96 35.78 34.54 33.46 33.00 32.77 32.71 32.62 32.68 32.76 32.85 33.04 33.07 32.84 33.03 33.12 32.94 32.53 32.18 31.84 31.75 31.54 31.30 31.17 31.37 31.14 31.03 31.30 31.94 32.26 32.60 33.15 34.23 35.02 35.49 35.64 35.96 35.56 34.19 32.54 31.62 30.64 30.11 29.91 30.01 30.93 31.33 31.41 31.40 31.13 30.92 30.58 30.38 30.59 30.84 31.24 31.44 31.44
37.86 37.92 38.11 38.40 38.33 38.10 37.92 37.76 37.24 36.45 35.37 34.09 33.22 32.70 32.44 32.43 32.56 32.62 32.68 32.77 32.95 33.06 33.17 33.13 32.97 32.82 32.56 32.15 31.46 30.94 30.69 30.87 30.82 30.62 30.53 30.38 30.29 30.18 30.31 31.03 31.29 31.65 32.50 34.05 34.81 35.15 35.42 35.94 36.12 35.08 33.21 30.70 29.82 29.36 29.25 29.75 30.49 30.95 31.08 30.95 30.79 30.45 30.21 29.95 29.87 30.02 30.24 30.51 30.46
36.79 36.99 37.06 37.13 36.90 36.77 36.50 36.08 34.92 33.74 32.67 31.99 31.99 32.14 32.27 32.43 32.49 32.65 32.90 33.25 33.28 33.14 32.93 32.71 32.51 32.24 31.91 31.54 30.78 30.23 29.99 30.02 30.28 30.43 30.34 29.93 29.76 29.46 29.47 30.03 29.89 30.73 32.26 34.24 34.92 35.47 35.83 36.21 36.28 35.80 34.22 31.19 29.63 29.00 28.94 29.05 29.41 29.83 30.22 30.49 30.36 30.06 29.80 29.52 29.21 29.23 29.30 29.12 29.22
35.86 35.79 35.57 35.10 34.94 34.75 34.38 33.61 32.82 32.23 31.88 31.87 32.05 32.36 32.54 32.55 32.66 32.86 32.98 33.17 32.93 32.60 32.26 32.23 31.99 31.71 31.35 30.76 30.42 30.26 29.98 29.66 30.24 30.09 29.70 29.34 28.75 28.49 28.37 28.42 28.51 29.74 31.80 34.49 35.05 35.58 35.96 36.17 35.91 35.51 34.83 33.81 30.61 28.72 28.06 28.30 28.54 29.12 29.66 30.16 30.16 29.98 29.63 29.33 29.12 28.71 28.30 28.24 28.16
34.75 34.16 33.57 33.21 33.25 33.38 33.34 32.89 32.58 32.41 32.28 32.36 32.59 32.57 32.55 32.53 32.57 32.59 32.55 32.52 32.19 31.92 31.75 31.73 31.33 31.02 30.59 30.42 30.32 30.20 30.10 30.17 29.79 29.13 28.20 27.29 27.03 27.10 27.40 27.61 27.84 29.19 31.38 34.15 34.95 35.54 35.82 35.94 35.55 35.10 34.64 34.23 31.46 29.66 28.67 28.36 28.43 28.79 29.32 29.72 29.70 29.32 28.83 28.39 28.06 28.06 28.17 28.33 28.38
33.58 33.21 32.85 32.91 33.14 33.40 33.42 33.19 33.02 32.88 32.85 32.74 32.66 32.56 32.40 32.31 32.34 32.38 32.35 32.23 31.96 31.68 31.36 31.27 30.82 30.41 30.29 30.54 30.20 29.92 29.62 29.27 28.71 27.90 27.00 26.29 26.29 26.57 27.02 27.43 27.21 28.68 31.04 33.94 34.79 35.34 35.55 35.51 35.21 34.82 34.33 33.92 31.91 30.32 29.37 28.82 28.64 28.75 28.93 29.12 29.02 28.99 28.94 28.74 28.88 29.07 29.16 29.02 29.02
32.92 32.98 33.08 33.34 33.36 33.43 33.34 33.35 33.16 33.04 32.88 32.85 32.58 32.37 32.15 31.90 31.91 32.03 32.07 32.05 31.81 31.62 31.31 31.20 30.64 30.28 30.07 29.98 29.62 29.21 28.71 28.15 27.52 26.88 26.46 26.21 26.18 26.38 26.77 27.30 27.13 28.25 30.56 33.89 34.70 35.01 35.01 34.87 34.70 34.27 33.92 33.42 31.78 30.40 29.36 28.95 29.00 29.13 29.18 29.18 29.15 29.27 29.44 29.67 29.94 29.92 29.82 29.61 29.61
32.82 32.98 33.09 33.10 33.07 32.98 32.90 32.76 32.69 32.53 32.47 32.39 32.12 32.02 31.75 31.50 31.54 31.73 31.95 32.06 31.98 31.73 31.30 30.93 30.25 29.87 29.49 29.12 28.65 28.19 27.70 27.07 26.54 26.26 26.26 26.21 26.32 26.54 26.88 27.39 27.56 29.16 31.62 34.07 34.40 34.43 34.28 34.14 33.98 33.73 33.42 33.06 31.59 30.29 29.40 29.40 29.69 29.94 30.05 30.13 29.94 29.87 29.81 29.97 30.30 30.41 30.43 30.38 30.41
32.40 32.72 32.82 32.59 32.50 32.35 32.11 31.79 31.75 31.69 31.70 31.80 31.62 31.49 31.38 31.38 31.66 32.01 32.25 32.40 32.15 31.77 31.23 30.71 30.02 29.44 29.00 28.43 27.89 27.32 26.80 26.55 26.21 26.07 26.10 26.21 26.29 26.41 26.73 27.09 27.51 30.06 32.86 33.92 33.87 33.83 33.70 33.61 33.45 33.33 33.06 32.57 31.22 30.23 29.92 30.07 30.21 30.30 30.33 30.39 30.39 30.53 30.66 30.74 30.79 30.91 30.83 30.88 30.89
32.45 33.02 33.33 32.83 32.50 32.10 31.73 31.29 31.34 31.53 31.58 31.58 31.33 31.42 31.64 32.25 32.79 33.23 33.22 32.71 31.90 31.27 30.61 29.95 29.38 28.75 28.18 27.67 27.24 26.78 26.38 26.04 26.02 25.87 25.84 25.79 25.80 26.06 26.39 26.65 26.99 29.72 32.45 33.30 33.37 33.29 33.32 33.18 33.03 32.95 32.66 31.80 30.63 30.31 30.39 30.42 30.24 30.20 30.27 30.35 30.46 30.64 30.75 31.04 31.12 31.22 31.25 31.34 31.33
33.44 33.67 33.51 32.46 31.89 31.49 31.27 31.26 31.60 31.72 31.64 31.25 31.43 31.96 32.70 33.60 33.96 33.92 33.41 32.26 31.10 30.19 29.34 28.69 28.21 27.83 27.38 27.00 26.59 26.28 26.14 26.02 25.90 25.87 25.76 25.46 25.38 25.56 25.80 26.01 26.18 28.50 31.02 32.42 32.67 32.76 32.79 32.78 32.69 32.59 32.20 31.40 30.53 30.34 30.37 30.36 30.23 30.31 30.37 30.36 30.39 30.63 30.80 31.07 31.19 31.38 31.51 31.66 31.74
34.23 33.41 32.26 31.08 30.98 30.92 31.01 31.43 31.79 31.75 31.68 31.80 32.57 33.28 33.79 34.17 34.09 33.54 32.56 31.22 30.01 29.04 28.29 27.78 27.32 26.92 26.60 26.29 25.99 25.92 25.95 26.00 25.77 25.62 25.51 25.12 24.95 24.96 25.08 25.25 25.42 26.83 29.05 31.38 32.08 32.39 32.43 32.46 32.44 32.32 31.74 30.67 30.28 30.20 30.30 30.20 30.30 30.38 30.43 30.46 30.66 30.94 31.23 31.45 31.62 31.71 31.83 31.97 32.11
33.24 32.10 31.18 30.71 30.81 31.03 31.29 31.90 32.12 32.21 32.56 33.35 34.06 34.45 34.54 34.25 33.41 32.48 31.43 30.27 29.38 28.45 27.67 27.22 26.79 26.42 25.95 25.77 25.72 25.68 25.66 25.68 25.56 25.39 25.20 24.86 24.70 24.61 24.61 24.75 24.89 25.84 27.75 30.48 31.58 31.97 32.13 32.20 32.29 32.17 31.59 30.28 30.12 30.10 30.11 30.21 30.34 30.45 30.64 30.73 31.06 31.44 31.71 32.11 32.19 32.35 32.37 32.44 32.80
32.56 31.94 31.40 31.24 31.38 31.85 32.44 33.03 33.25 33.61 34.02 34.62 34.74 34.65 34.29 33.46 32.33 31.54 30.70 29.64 28.93 28.10 27.35 26.69 26.26 25.99 25.85 25.64 25.54 25.50 25.43 25.37 25.16 25.11 24.94 24.69 24.67 25.11 25.37 24.52 24.48 25.34 27.19 29.99 31.14 31.66 31.84 31.95 32.13 32.14 31.78 30.74 30.39 30.30 30.43 30.44 30.47 30.65 30.87 31.24 31.57 31.74 32.01 32.30 32.36 32.31 31.86 31.10 32.64
32.51 32.34 32.38 32.68 33.15 33.57 34.13 34.50 34.65 34.95 35.05 35.07 34.56 33.95 33.17 32.04 31.02 30.54 30.06 29.00 28.26 27.48 26.79 26.13 25.85 25.92 26.08 25.92 25.29 24.88 24.61 24.54 24.56 24.68 24.43 24.03 24.64 26.46 27.02 24.16 23.96 24.74 26.62 29.26 30.78 31.40 31.62 31.84 32.04 32.16 31.94 30.87 30.75 30.81 31.04 31.15 31.14 31.16 31.32 31.44 31.28 31.03 30.89 30.89 30.71 30.24 29.32 28.39 29.86
32.81 33.17 33.70 34.14 34.64 34.95 35.10 35.17 35.17 35.17 35.05 34.60 33.70 32.74 31.66 30.64 29.89 29.49 28.90 27.97 27.24 26.76 26.40 26.23 25.84 25.78 25.68 25.43 24.77 24.10 23.60 23.45 23.87 23.96 23.76 23.41 23.90 25.64 26.26 23.70 23.75 24.33 25.73 27.94 30.06 31.00 31.49 31.71 31.96 32.26 32.09 31.09 31.26 31.53 31.76 31.65 31.30 30.83 30.40 29.82 29.21 28.67 28.32 28.10 28.03 27.82 27.59 27.40 27.76
MSLP
1013.98 1014.02 1014.10 1014.22 1014.38 1014.58 1014.82 1015.06 1015.26 1015.38 1015.50 1015.70 1015.90 1016.06 1016.26 1016.50 1016.74 1016.90 1017.06 1017.22 1017.38 1017.46 1017.54 1017.58 1017.70 1017.78 1017.90 1017.98 1018.10 1018.22 1018.34 1018.42 1018.42 1018.42 1018.50 1018.54 1018.58 1018.62 1018.66 1018.70 1018.70 1018.74 1018.78 1018.74 1018.70 1018.66 1018.66 1018.62 1018.62 1018.62 1018.58 1018.58 1018.58 1018.54 1018.42 1018.38 1018.34 1018.30 1018.26 1018.18 1018.10 1017.98 1017.90 1017.90 1017.82 1017.70 1017.58 1017.54 1017.42
1014.58 1014.62 1014.66 1014.70 1014.78 1014.90 1015.14 1015.38 1015.54 1015.66 1015.78 1015.94 1016.10 1016.26 1016.42 1016.66 1016.86 1017.06 1017.18 1017.34 1017.42 1017.46 1017.54 1017.66 1017.74 1017.86 1017.98 1018.10 1018.14 1018.26 1018.38 1018.42 1018.42 1018.42 1018.50 1018.54 1018.58 1018.58 1018.62 1018.62 1018.66 1018.66 1018.66 1018.62 1018.58 1018.58 1018.58 1018.58 1018.58 1018.58 1018.54 1018.50 1018.50 1018.42 1018.38 1018.26 1018.26 1018.26 1018.18 1018.14 1017.98 1017.86 1017.82 1017.74 1017.66 1017.54 1017.50 1017.42 1017.30
1015.10 1015.14 1015.18 1015.18 1015.26 1015.42 1015.54 1015.74 1015.86 1015.98 1016.06 1016.14 1016.26 1016.42 1016.58 1016.82 1017.02 1017.18 1017.30 1017.42 1017.46 1017.54 1017.66 1017.78 1017.86 1017.98 1018.06 1018.14 1018.18 1018.26 1018.34 1018.38 1018.42 1018.42 1018.50 1018.54 1018.54 1018.58 1018.58 1018.58 1018.58 1018.54 1018.50 1018.50 1018.50 1018.50 1018.54 1018.54 1018.58 1018.54 1018.46 1018.42 1018.42 1018.34 1018.26 1018.14 1018.14 1018.10 1018.02 1017.98 1017.86 1017.78 1017.70 1017.62 1017.54 1017.42 1017.34 1017.26 1017.18
1015.46 1015.50 1015.54 1015.66 1015.70 1015.86 1015.94 1016.02 1016.14 1016.18 1016.26 1016.38 1016.46 1016.62 1016.78 1016.98 1017.14 1017.26 1017.38 1017.50 1017.54 1017.66 1017.78 1017.94 1018.06 1018.14 1018.14 1018.22 1018.26 1018.26 1018.30 1018.34 1018.42 1018.46 1018.50 1018.54 1018.54 1018.54 1018.50 1018.46 1018.46 1018.46 1018.42 1018.42 1018.42 1018.42 1018.42 1018.42 1018.42 1018.42 1018.34 1018.30 1018.26 1018.26 1018.14 1018.02 1017.98 1017.94 1017.86 1017.78 1017.66 1017.58 1017.54 1017.46 1017.38 1017.26 1017.26 1017.14 1017.06
1015.78 1015.82 1015.86 1015.90 1015.94 1016.02 1016.14 1016.22 1016.26 1016.38 1016.46 1016.54 1016.62 1016.78 1016.98 1017.10 1017.22 1017.30 1017.42 1017.58 1017.70 1017.82 1017.90 1017.98 1018.10 1018.14 1018.18 1018.18 1018.22 1018.26 1018.30 1018.34 1018.42 1018.42 1018.46 1018.50 1018.50 1018.46 1018.42 1018.42 1018.42 1018.38 1018.34 1018.30 1018.34 1018.30 1018.26 1018.26 1018.26 1018.22 1018.18 1018.14 1018.10 1018.02 1017.98 1017.86 1017.86 1017.78 1017.70 1017.54 1017.50 1017.42 1017.42 1017.30 1017.26 1017.18 1017.10 1017.02 1016.98
1015.98 1015.98 1015.98 1016.02 1016.06 1016.14 1016.26 1016.34 1016.42 1016.46 1016.58 1016.62 1016.74 1016.94 1017.06 1017.14 1017.26 1017.42 1017.54 1017.66 1017.78 1017.86 1017.94 1018.02 1018.10 1018.14 1018.14 1018.14 1018.22 1018.26 1018.30 1018.34 1018.42 1018.42 1018.46 1018.42 1018.42 1018.34 1018.30 1018.26 1018.26 1018.26 1018.26 1018.22 1018.18 1018.14 1018.14 1018.14 1018.14 1018.06 1018.02 1017.98 1017.90 1017.82 1017.74 1017.70 1017.70 1017.66 1017.54 1017.46 1017.38 1017.30 1017.26 1017.22 1017.14 1017.02 1016.98 1016.94 1016.86
1016.06 1016.14 1016.14 1016.14 1016.22 1016.26 1016.38 1016.42 1016.50 1016.58 1016.66 1016.74 1016.86 1016.98 1017.14 1017.22 1017.34 1017.46 1017.58 1017.70 1017.78 1017.86 1017.94 1017.98 1018.06 1018.10 1018.14 1018.18 1018.26 1018.26 1018.30 1018.34 1018.34 1018.34 1018.34 1018.30 1018.26 1018.22 1018.22 1018.18 1018.14 1018.14 1018.10 1018.06 1018.06 1018.02 1017.98 1017.98 1017.94 1017.86 1017.82 1017.78 1017.70 1017.62 1017.54 1017.54 1017.54 1017.50 1017.42 1017.34 1017.26 1017.14 1017.10 1017.06 1016.98 1016.90 1016.86 1016.86 1016.78
1016.10 1016.14 1016.14 1016.18 1016.26 1016.38 1016.46 1016.54 1016.62 1016.70 1016.78 1016.90 1017.02 1017.14 1017.22 1017.30 1017.42 1017.50 1017.58 1017.70 1017.78 1017.86 1017.90 1017.98 1017.98 1018.06 1018.14 1018.18 1018.26 1018.30 1018.30 1018.30 1018.26 1018.22 1018.14 1018.14 1018.14 1018.10 1018.06 1018.06 1017.98 1017.98 1017.94 1017.90 1017.90 1017.86 1017.82 1017.78 1017.74 1017.70 1017.66 1017.62 1017.54 1017.42 1017.38 1017.34 1017.34 1017.30 1017.26 1017.18 1017.06 1016.98 1016.94 1016.86 1016.78 1016.74 1016.70 1016.70 1016.62
1016.14 1016.14 1016.18 1016.22 1016.30 1016.42 1016.50 1016.58 1016.70 1016.82 1016.94 1017.02 1017.14 1017.22 1017.26 1017.38 1017.42 1017.54 1017.62 1017.70 1017.74 1017.82 1017.86 1017.90 1017.94 1017.98 1018.10 1018.14 1018.18 1018.22 1018.18 1018.14 1018.14 1018.10 1018.02 1018.02 1018.02 1017.98 1017.94 1017.94 1017.90 1017.86 1017.82 1017.70 1017.70 1017.70 1017.66 1017.58 1017.54 1017.50 1017.46 1017.42 1017.34 1017.26 1017.18 1017.14 1017.14 1017.14 1017.10 1016.98 1016.90 1016.86 1016.78 1016.70 1016.66 1016.62 1016.58 1016.58 1016.50
1016.14 1016.14 1016.22 1016.26 1016.42 1016.46 1016.54 1016.66 1016.74 1016.86 1016.98 1017.10 1017.18 1017.26 1017.30 1017.42 1017.46 1017.50 1017.58 1017.66 1017.70 1017.74 1017.82 1017.86 1017.90 1017.98 1018.06 1018.10 1018.10 1018.06 1018.02 1017.98 1017.98 1017.98 1017.98 1017.94 1017.90 1017.86 1017.86 1017.78 1017.74 1017.70 1017.66 1017.62 1017.54 1017.54 1017.54 1017.46 1017.42 1017.38 1017.30 1017.26 1017.22 1017.14 1017.06 1017.02 1017.02 1016.98 1016.98 1016.86 1016.78 1016.70 1016.66 1016.58 1016.58 1016.50 1016.46 1016.42 1016.38
1016.10 1016.14 1016.22 1016.34 1016.46 1016.54 1016.62 1016.74 1016.86 1016.94 1016.98 1017.10 1017.18 1017.26 1017.34 1017.42 1017.46 1017.50 1017.54 1017.58 1017.70 1017.78 1017.82 1017.86 1017.86 1017.94 1017.98 1017.98 1017.98 1017.94 1017.86 1017.86 1017.90 1017.86 1017.86 1017.82 1017.78 1017.70 1017.70 1017.62 1017.58 1017.54 1017.54 1017.50 1017.46 1017.42 1017.42 1017.38 1017.34 1017.26 1017.22 1017.14 1017.10 1017.02 1016.98 1016.94 1016.94 1016.90 1016.86 1016.74 1016.70 1016.62 1016.58 1016.46 1016.42 1016.38 1016.34 1016.26 1016.22
1016.14 1016.22 1016.26 1016.38 1016.46 1016.58 1016.70 1016.86 1016.94 1016.98 1017.06 1017.14 1017.18 1017.26 1017.30 1017.38 1017.42 1017.50 1017.54 1017.58 1017.70 1017.70 1017.74 1017.74 1017.78 1017.82 1017.86 1017.86 1017.86 1017.82 1017.78 1017.78 1017.78 1017.74 1017.70 1017.70 1017.62 1017.58 1017.54 1017.50 1017.46 1017.42 1017.42 1017.38 1017.34 1017.30 1017.30 1017.26 1017.26 1017.22 1017.14 1017.06 1017.02 1016.98 1016.90 1016.86 1016.82 1016.78 1016.70 1016.58 1016.58 1016.50 1016.46 1016.38 1016.34 1016.26 1016.18 1016.14 1016.10
1016.14 1016.26 1016.34 1016.42 1016.50 1016.62 1016.74 1016.86 1016.98 1017.02 1017.10 1017.14 1017.22 1017.26 1017.26 1017.34 1017.38 1017.42 1017.50 1017.54 1017.62 1017.62 1017.62 1017.62 1017.62 1017.66 1017.70 1017.70 1017.70 1017.70 1017.70 1017.70 1017.66 1017.62 1017.58 1017.54 1017.50 1017.46 1017.42 1017.38 1017.34 1017.30 1017.26 1017.26 1017.22 1017.22 1017.18 1017.14 1017.10 1017.06 1017.02 1016.98 1016.90 1016.86 1016.82 1016.74 1016.70 1016.66 1016.58 1016.50 1016.46 1016.42 1016.34 1016.26 1016.18 1016.14 1016.10 1016.02 1015.98
1016.14 1016.26 1016.34 1016.42 1016.54 1016.66 1016.74 1016.86 1016.90 1016.98 1017.06 1017.10 1017.14 1017.14 1017.18 1017.22 1017.26 1017.30 1017.38 1017.42 1017.46 1017.50 1017.50 1017.54 1017.54 1017.54 1017.54 1017.54 1017.54 1017.54 1017.54 1017.54 1017.54 1017.54 1017.50 1017.42 1017.42 1017.38 1017.30 1017.26 1017.22 1017.18 1017.14 1017.14 1017.14 1017.10 1017.10 1017.06 1017.02 1016.98 1016.98 1016.86 1016.82 1016.74 1016.70 1016.66 1016.62 1016.58 1016.50 1016.42 1016.38 1016.26 1016.22 1016.14 1016.10 1016.02 1015.98 1015.94 1015.86
1016.10 1016.18 1016.26 1016.38 1016.46 1016.58 1016.70 1016.78 1016.86 1016.86 1016.98 1017.02 1017.02 1017.02 1017.06 1017.10 1017.14 1017.18 1017.26 1017.34 1017.38 1017.42 1017.46 1017.50 1017.54 1017.50 1017.46 1017.46 1017.46 1017.46 1017.50 1017.46 1017.46 1017.42 1017.42 1017.38 1017.30 1017.26 1017.22 1017.14 1017.14 1017.06 1017.06 1017.02 1016.98 1016.98 1016.98 1016.98 1016.94 1016.90 1016.86 1016.82 1016.70 1016.66 1016.58 1016.58 1016.50 1016.42 1016.38 1016.34 1016.26 1016.14 1016.10 1016.02 1015.98 1015.90 1015.86 1015.82 1015.70
1016.02 1016.14 1016.22 1016.30 1016.42 1016.50 1016.58 1016.66 1016.74 1016.82 1016.86 1016.94 1016.94 1016.98 1016.98 1017.06 1017.14 1017.18 1017.26 1017.34 1017.38 1017.42 1017.46 1017.50 1017.50 1017.46 1017.42 1017.42 1017.42 1017.42 1017.42 1017.42 1017.38 1017.34 1017.30 1017.26 1017.22 1017.14 1017.10 1017.06 1017.02 1016.98 1016.98 1016.94 1016.94 1016.86 1016.86 1016.86 1016.86 1016.82 1016.74 1016.70 1016.62 1016.58 1016.50 1016.42 1016.38 1016.30 1016.26 1016.18 1016.10 1015.98 1015.94 1015.86 1015.86 1015.78 1015.70 1015.66 1015.58
1015.98 1016.06 1016.14 1016.26 1016.34 1016.42 1016.58 1016.66 1016.74 1016.82 1016.86 1016.86 1016.90 1016.98 1017.02 1017.10 1017.14 1017.22 1017.30 1017.38 1017.42 1017.46 1017.50 1017.50 1017.50 1017.50 1017.46 1017.42 1017.38 1017.38 1017.34 1017.30 1017.26 1017.26 1017.22 1017.14 1017.14 1017.06 1017.02 1016.98 1016.94 1016.90 1016.86 1016.86 1016.86 1016.82 1016.74 1016.70 1016.70 1016.66 1016.62 1016.58 1016.50 1016.42 1016.38 1016.30 1016.26 1016.14 1016.10 1015.98 1015.94 1015.86 1015.78 1015.70 1015.66 1015.58 1015.54 1015.46 1015.42
1015.98 1016.06 1016.14 1016.26 1016.38 1016.50 1016.58 1016.70 1016.74 1016.78 1016.82 1016.86 1016.94 1017.02 1017.10 1017.14 1017.26 1017.30 1017.42 1017.46 1017.50 1017.54 1017.54 1017.50 1017.46 1017.42 1017.42 1017.38 1017.34 1017.26 1017.26 1017.22 1017.18 1017.14 1017.10 1017.02 1016.98 1016.98 1016.94 1016.90 1016.86 1016.82 1016.78 1016.78 1016.74 1016.70 1016.70 1016.62 1016.58 1016.54 1016.50 1016.42 1016.34 1016.26 1016.22 1016.14 1016.06 1015.98 1015.90 1015.82 1015.74 1015.66 1015.58 1015.54 1015.46 1015.42 1015.34 1015.30 1015.26
1016.06 1016.14 1016.22 1016.30 1016.38 1016.46 1016.58 1016.62 1016.70 1016.74 1016.86 1016.94 1017.02 1017.14 1017.22 1017.30 1017.42 1017.50 1017.54 1017.54 1017.50 1017.50 1017.50 1017.46 1017.42 1017.38 1017.30 1017.26 1017.26 1017.22 1017.14 1017.10 1017.10 1017.06 1016.98 1016.94 1016.90 1016.86 1016.86 1016.78 1016.74 1016.70 1016.70 1016.66 1016.62 1016.58 1016.54 1016.46 1016.42 1016.38 1016.34 1016.26 1016.18 1016.14 1016.06 1015.98 1015.90 1015.82 1015.70 1015.66 1015.54 1015.50 1015.42 1015.30 1015.26 1015.22 1015.18 1015.18 1015.18
1016.14 1016.18 1016.26 1016.34 1016.34 1016.42 1016.54 1016.62 1016.74 1016.86 1016.98 1017.14 1017.26 1017.38 1017.50 1017.58 1017.62 1017.62 1017.54 1017.50 1017.42 1017.38 1017.38 1017.38 1017.34 1017.26 1017.22 1017.18 1017.14 1017.14 1017.10 1017.02 1016.98 1016.98 1016.94 1016.86 1016.86 1016.82 1016.74 1016.70 1016.70 1016.62 1016.58 1016.58 1016.50 1016.46 1016.42 1016.34 1016.26 1016.22 1016.18 1016.14 1016.06 1015.98 1015.86 1015.82 1015.70 1015.62 1015.54 1015.42 1015.34 1015.26 1015.18 1015.14 1015.10 1015.10 1015.06 1015.06 1015.06
1016.18 1016.26 1016.34 1016.42 1016.46 1016.58 1016.70 1016.82 1016.98 1017.14 1017.30 1017.46 1017.62 1017.70 1017.74 1017.70 1017.62 1017.54 1017.42 1017.38 1017.26 1017.26 1017.26 1017.26 1017.26 1017.22 1017.18 1017.14 1017.14 1017.06 1016.98 1016.98 1016.94 1016.90 1016.86 1016.82 1016.74 1016.70 1016.66 1016.62 1016.58 1016.54 1016.46 1016.42 1016.38 1016.30 1016.26 1016.18 1016.14 1016.06 1015.98 1015.94 1015.86 1015.78 1015.70 1015.58 1015.50 1015.38 1015.26 1015.18 1015.14 1015.06 1015.02 1015.02 1014.98 1014.98 1014.94 1014.90 1014.90
1016.26 1016.42 1016.50 1016.58 1016.70 1016.82 1016.98 1017.14 1017.26 1017.46 1017.66 1017.78 1017.86 1017.86 1017.74 1017.62 1017.50 1017.34 1017.22 1017.14 1017.14 1017.14 1017.18 1017.18 1017.18 1017.14 1017.14 1017.14 1017.10 1017.02 1016.98 1016.90 1016.86 1016.82 1016.78 1016.70 1016.66 1016.58 1016.54 1016.46 1016.46 1016.42 1016.34 1016.26 1016.22 1016.14 1016.06 1015.98 1015.94 1015.86 1015.78 1015.70 1015.62 1015.54 1015.46 1015.38 1015.26 1015.14 1015.06 1014.98 1014.98 1014.90 1014.86 1014.86 1014.82 1014.78 1014.78 1014.74 1014.70
1016.38 1016.50 1016.66 1016.74 1016.86 1016.98 1017.14 1017.30 1017.50 1017.66 1017.78 1017.86 1017.82 1017.70 1017.54 1017.38 1017.18 1017.06 1017.02 1017.02 1017.06 1017.10 1017.10 1017.10 1017.10 1017.06 1017.06 1017.02 1016.98 1016.98 1016.90 1016.86 1016.78 1016.70 1016.66 1016.62 1016.58 1016.50 1016.42 1016.34 1016.30 1016.26 1016.22 1016.14 1016.02 1015.98 1015.86 1015.78 1015.70 1015.66 1015.58 1015.54 1015.42 1015.34 1015.26 1015.18 1015.10 1015.02 1014.98 1014.90 1014.86 1014.78 1014.70 1014.66 1014.70 1014.66 1014.62 1014.62 1014.58
1016.46 1016.58 1016.70 1016.78 1016.86 1016.98 1017.14 1017.30 1017.50 1017.62 1017.66 1017.62 1017.50 1017.34 1017.14 1016.98 1016.94 1016.94 1016.98 1016.98 1016.98 1016.98 1017.02 1016.98 1016.98 1016.98 1016.98 1016.94 1016.90 1016.86 1016.86 1016.78 1016.70 1016.66 1016.58 1016.54 1016.46 1016.38 1016.30 1016.26 1016.18 1016.14 1016.02 1015.94 1015.86 1015.78 1015.70 1015.62 1015.54 1015.42 1015.38 1015.30 1015.22 1015.14 1015.14 1015.10 1014.98 1014.94 1014.86 1014.82 1014.74 1014.66 1014.58 1014.58 1014.58 1014.58 1014.54 1014.54 1014.50
1016.50 1016.62 1016.70 1016.74 1016.82 1016.94 1017.06 1017.22 1017.30 1017.34 1017.30 1017.22 1017.06 1016.94 1016.86 1016.86 1016.86 1016.86 1016.86 1016.86 1016.86 1016.90 1016.94 1016.98 1016.94 1016.90 1016.86 1016.86 1016.82 1016.78 1016.74 1016.74 1016.66 1016.58 1016.54 1016.42 1016.34 1016.26 1016.22 1016.14 1016.02 1015.98 1015.86 1015.74 1015.66 1015.54 1015.42 1015.42 1015.30 1015.26 1015.18 1015.14 1015.10 1015.10 1015.06 1014.98 1014.98 1014.90 1014.86 1014.78 1014.70 1014.58 1014.54 1014.50 1014.42 1014.42 1014.42 1014.38 1014.30
1016.42 1016.50 1016.58 1016.62 1016.70 1016.82 1016.94 1016.98 1016.98 1016.94 1016.86 1016.82 1016.70 1016.70 1016.74 1016.78 1016.70 1016.70 1016.70 1016.74 1016.82 1016.86 1016.86 1016.90 1016.86 1016.86 1016.82 1016.74 1016.70 1016.70 1016.66 1016.66 1016.58 1016.50 1016.42 1016.34 1016.26 1016.18 1016.10 1015.98 1015.90 1015.82 1015.70 1015.54 1015.42 1015.34 1015.26 1015.22 1015.18 1015.14 1015.14 1015.14 1015.14 1015.10 1015.02 1014.98 1014.90 1014.86 1014.82 1014.70 1014.62 1014.58 1014.46 1014.42 1014.30 1014.26 1014.18 1014.14 1014.14
1016.30 1016.38 1016.42 1016.46 1016.58 1016.62 1016.66 1016.66 1016.62 1016.58 1016.58 1016.58 1016.62 1016.62 1016.62 1016.62 1016.58 1016.58 1016.66 1016.70 1016.74 1016.78 1016.78 1016.78 1016.78 1016.78 1016.74 1016.70 1016.70 1016.66 1016.58 1016.50 1016.42 1016.42 1016.34 1016.26 1016.14 1016.02 1015.94 1015.86 1015.74 1015.70 1015.54 1015.42 1015.30 1015.22 1015.14 1015.10 1015.06 1015.02 1015.06 1015.02 1015.06 1015.02 1014.98 1014.90 1014.82 1014.74 1014.70 1014.62 1014.54 1014.46 1014.38 1014.26 1014.14 1014.06 1013.98 1013.98 1013.90
1016.14 1016.26 1016.30 1016.34 1016.42 1016.42 1016.42 1016.42 1016.46 1016.46 1016.46 1016.50 1016.50 1016.50 1016.46 1016.50 1016.58 1016.58 1016.66 1016.70 1016.70 1016.74 1016.74 1016.74 1016.74 1016.70 1016.66 1016.66 1016.66 1016.58 1016.50 1016.42 1016.30 1016.26 1016.14 1016.06 1015.98 1015.94 1015.86 1015.70 1015.62 1015.54 1015.42 1015.26 1015.14 1015.10 1015.02 1014.98 1014.94 1014.86 1014.86 1014.90 1014.90 1014.90 1014.86 1014.82 1014.74 1014.66 1014.58 1014.50 1014.38 1014.26 1014.22 1014.14 1014.02 1013.94 1013.86 1013.78 1013.70
1016.06 1016.14 1016.18 1016.22 1016.26 1016.26 1016.26 1016.30 1016.38 1016.38 1016.38 1016.38 1016.38 1016.38 1016.42 1016.46 1016.54 1016.58 1016.62 1016.66 1016.70 1016.74 1016.74 1016.70 1016.66 1016.62 1016.62 1016.58 1016.54 1016.42 1016.38 1016.30 1016.18 1016.10 1016.02 1015.98 1015.86 1015.82 1015.70 1015.62 1015.50 1015.38 1015.26 1015.14 1015.02 1014.98 1014.86 1014.82 1014.78 1014.70 1014.70 1014.74 1014.78 1014.74 1014.70 1014.70 1014.62 1014.54 1014.42 1014.30 1014.22 1014.14 1014.02 1013.98 1013.90 1013.82 1013.70 1013.62 1013.54
1015.94 1016.02 1016.10 1016.14 1016.14 1016.14 1016.18 1016.22 1016.22 1016.22 1016.26 1016.26 1016.26 1016.34 1016.42 1016.46 1016.54 1016.58 1016.62 1016.66 1016.70 1016.70 1016.62 1016.58 1016.58 1016.58 1016.54 1016.46 1016.42 1016.34 1016.26 1016.14 1016.06 1015.98 1015.98 1015.90 1015.82 1015.70 1015.58 1015.46 1015.34 1015.22 1015.10 1014.98 1014.90 1014.82 1014.74 1014.70 1014.62 1014.62 1014.62 1014.58 1014.62 1014.58 1014.58 1014.54 1014.46 1014.38 1014.26 1014.14 1014.06 1013.98 1013.90 1013.82 1013.70 1013.58 1013.50 1013.38 1013.26
1015.86 1015.98 1015.98 1016.02 1016.06 1016.06 1016.10 1016.10 1016.14 1016.14 1016.14 1016.22 1016.26 1016.38 1016.42 1016.46 1016.54 1016.58 1016.58 1016.62 1016.62 1016.58 1016.50 1016.46 1016.46 1016.46 1016.42 1016.30 1016.26 1016.18 1016.14 1015.98 1015.90 1015.86 1015.86 1015.82 1015.70 1015.58 1015.42 1015.34 1015.22 1015.10 1014.98 1014.86 1014.78 1014.70 1014.62 1014.58 1014.58 1014.54 1014.50 1014.46 1014.50 1014.42 1014.38 1014.34 1014.26 1014.18 1014.06 1013.98 1013.86 1013.74 1013.62 1013.50 1013.38 1013.26 1013.14 1013.02 1012.94
1015.86 1015.86 1015.90 1015.98 1015.98 1015.98 1015.98 1015.98 1016.02 1016.10 1016.14 1016.18 1016.26 1016.38 1016.42 1016.46 1016.54 1016.54 1016.54 1016.58 1016.54 1016.46 1016.42 1016.42 1016.38 1016.30 1016.26 1016.18 1016.14 1016.06 1015.98 1015.90 1015.82 1015.78 1015.70 1015.66 1015.54 1015.42 1015.26 1015.18 1015.10 1014.98 1014.86 1014.78 1014.70 1014.62 1014.58 1014.54 1014.46 1014.42 1014.42 1014.38 1014.34 1014.30 1014.26 1014.14 1014.06 1013.98 1013.86 1013.70 1013.54 1013.46 1013.34 1013.18 1013.06 1012.90 1012.82 1012.70 1012.62
1015.74 1015.82 1015.86 1015.90 1015.90 1015.90 1015.90 1015.94 1015.98 1016.10 1016.14 1016.22 1016.30 1016.42 1016.46 1016.46 1016.46 1016.50 1016.50 1016.50 1016.46 1016.42 1016.34 1016.34 1016.26 1016.22 1016.18 1016.14 1016.02 1015.94 1015.86 1015.86 1015.74 1015.62 1015.54 1015.46 1015.38 1015.26 1015.14 1015.10 1014.98 1014.86 1014.78 1014.70 1014.58 1014.58 1014.50 1014.46 1014.38 1014.30 1014.26 1014.22 1014.22 1014.14 1014.06 1013.98 1013.86 1013.70 1013.54 1013.42 1013.26 1013.14 1012.98 1012.86 1012.74 1012.58 1012.46 1012.38 1012.30
1015.70 1015.74 1015.78 1015.78 1015.82 1015.86 1015.90 1015.98 1015.98 1016.06 1016.14 1016.26 1016.38 1016.42 1016.50 1016.50 1016.50 1016.54 1016.54 1016.50 1016.38 1016.30 1016.26 1016.18 1016.14 1016.10 1016.06 1015.98 1015.90 1015.86 1015.82 1015.70 1015.58 1015.50 1015.42 1015.30 1015.26 1015.18 1015.10 1014.98 1014.86 1014.74 1014.70 1014.62 1014.58 1014.50 1014.42 1014.38 1014.26 1014.22 1014.14 1014.06 1014.02 1013.98 1013.86 1013.70 1013.58 1013.42 1013.30 1013.14 1012.98 1012.82 1012.66 1012.54 1012.34 1012.22 1012.14 1012.02 1011.98
1015.66 1015.70 1015.70 1015.70 1015.82 1015.86 1015.94 1015.98 1016.02 1016.10 1016.22 1016.34 1016.42 1016.50 1016.50 1016.50 1016.58 1016.58 1016.54 1016.38 1016.26 1016.14 1016.10 1016.02 1015.98 1015.94 1015.90 1015.86 1015.82 1015.74 1015.70 1015.58 1015.50 1015.42 1015.30 1015.22 1015.14 1015.14 1015.02 1014.90 1014.82 1014.70 1014.62 1014.58 1014.54 1014.42 1014.34 1014.26 1014.14 1014.10 1013.98 1013.90 1013.86 1013.74 1013.62 1013.42 1013.30 1013.18 1013.02 1012.86 1012.66 1012.42 1012.26 1012.10 1011.98 1011.86 1011.74 1011.66 1011.58
1015.50 1015.54 1015.70 1015.82 1015.90 1015.94 1015.98 1016.02 1016.10 1016.18 1016.30 1016.42 1016.50 1016.54 1016.58 1016.58 1016.58 1016.54 1016.38 1016.18 1016.10 1016.02 1015.98 1015.94 1015.90 1015.86 1015.86 1015.82 1015.70 1015.62 1015.54 1015.50 1015.42 1015.26 1015.18 1015.14 1015.14 1015.06 1014.98 1014.86 1014.74 1014.66 1014.58 1014.54 1014.42 1014.34 1014.22 1014.14 1014.02 1013.94 1013.86 1013.74 1013.66 1013.54 1013.38 1013.22 1013.06 1012.90 1012.74 1012.54 1012.30 1012.06 1011.86 1011.70 1011.54 1011.46 1011.38 1011.30 1011.22
1015.42 1015.54 1015.70 1015.86 1015.86 1015.94 1015.98 1016.10 1016.18 1016.30 1016.42 1016.50 1016.58 1016.58 1016.62 1016.62 1016.50 1016.34 1016.14 1016.02 1015.98 1015.98 1015.94 1015.86 1015.86 1015.82 1015.78 1015.70 1015.62 1015.54 1015.42 1015.34 1015.26 1015.22 1015.14 1015.06 1015.02 1014.98 1014.90 1014.82 1014.74 1014.66 1014.58 1014.42 1014.30 1014.22 1014.14 1013.98 1013.86 1013.78 1013.66 1013.54 1013.42 1013.30 1013.14 1012.98 1012.82 1012.62 1012.42 1012.14 1011.90 1011.66 1011.46 1011.34 1011.22 1011.14 1011.06 1010.98 1010.94
1015.42 1015.54 1015.70 1015.78 1015.90 1015.98 1016.10 1016.18 1016.26 1016.38 1016.42 1016.50 1016.58 1016.58 1016.54 1016.42 1016.26 1016.06 1015.94 1015.90 1015.90 1015.90 1015.90 1015.86 1015.82 1015.74 1015.70 1015.58 1015.54 1015.42 1015.30 1015.22 1015.14 1015.14 1015.06 1014.98 1014.98 1014.94 1014.86 1014.78 1014.66 1014.58 1014.50 1014.34 1014.18 1014.10 1013.98 1013.86 1013.74 1013.62 1013.50 1013.42 1013.26 1013.10 1012.94 1012.78 1012.58 1012.34 1012.10 1011.86 1011.54 1011.38 1011.22 1011.14 1011.02 1010.98 1010.90 1010.86 1010.78
1015.42 1015.50 1015.66 1015.82 1015.94 1016.06 1016.14 1016.18 1016.30 1016.42 1016.46 1016.46 1016.42 1016.38 1016.26 1016.10 1015.98 1015.86 1015.82 1015.78 1015.78 1015.82 1015.82 1015.78 1015.74 1015.62 1015.54 1015.42 1015.38 1015.30 1015.22 1015.14 1015.02 1014.98 1014.98 1014.94 1014.86 1014.86 1014.78 1014.70 1014.62 1014.50 1014.38 1014.26 1014.14 1013.98 1013.86 1013.74 1013.62 1013.46 1013.30 1013.22 1013.06 1012.90 1012.74 1012.54 1012.26 1012.06 1011.82 1011.62 1011.42 1011.30 1011.22 1011.14 1011.06 1010.98 1010.90 1010.86 1010.70
1015.50 1015.58 1015.70 1015.86 1015.98 1016.06 1016.18 1016.26 1016.34 1016.38 1016.34 1016.26 1016.18 1016.06 1015.98 1015.90 1015.82 1015.74 1015.70 1015.66 1015.70 1015.70 1015.70 1015.70 1015.62 1015.54 1015.42 1015.34 1015.26 1015.26 1015.14 1015.02 1014.98 1014.94 1014.90 1014.86 1014.82 1014.70 1014.66 1014.66 1014.58 1014.42 1014.30 1014.14 1014.02 1013.94 1013.82 1013.62 1013.46 1013.26 1013.14 1013.02 1012.86 1012.70 1012.54 1012.34 1012.14 1011.86 1011.70 1011.54 1011.54 1011.42 1011.34 1011.26 1011.14 1011.06 1010.94 1010.82 1010.66
1015.70 1015.78 1015.86 1015.94 1016.02 1016.14 1016.18 1016.26 1016.22 1016.14 1016.02 1015.98 1015.94 1015.86 1015.78 1015.74 1015.70 1015.66 1015.62 1015.62 1015.66 1015.66 1015.62 1015.58 1015.50 1015.42 1015.30 1015.26 1015.22 1015.18 1015.14 1015.06 1014.94 1014.86 1014.86 1014.82 1014.74 1014.66 1014.58 1014.58 1014.50 1014.38 1014.22 1014.14 1013.98 1013.86 1013.70 1013.54 1013.34 1013.14 1012.98 1012.86 1012.74 1012.58 1012.42 1012.22 1012.02 1011.86 1011.78 1011.70 1011.66 1011.54 1011.42 1011.26 1011.14 1010.98 1010.86 1010.70 1010.50
Wind_Speed
7 6 5 5 4 5 5 5 4 4 4 4 4 4 4 4 4 4 4 4 3 3 3 3 3 2 2 2 1 1 1 2 2 2 3 3 4 5 5 6 5 5 4 4 4 4 4 3 3 3 3 3 3 3 3 3 4 4 4 5 5 5 5 6 7 7 7 8 6
9 8 7 6 6 5 5 5 5 5 5 4 4 4 5 4 4 4 4 3 3 3 3 3 2 2 2 1 0 1 1 2 2 3 3 4 5 5 5 5 5 4 4 4 4 4 4 3 3 3 3 3 3 4 4 4 4 4 5 7 5 5 5 6 7 7 7 7 6
8 8 7 7 7 6 5 5 5 5 5 5 5 5 4 4 4 4 3 3 3 3 3 2 2 1 1 0 0 1 1 2 3 4 4 5 5 5 5 4 4 4 4 3 4 4 4 4 3 3 4 4 4 4 5 5 4 5 5 6 5 5 5 6 6 6 6 6 6
8 7 7 7 7 7 5 4 5 5 5 5 5 5 4 4 3 3 3 3 3 3 2 2 1 1 0 0 1 2 2 3 3 4 5 5 5 5 5 4 4 4 4 4 4 5 5 4 4 4 4 4 5 5 5 5 5 5 5 5 5 5 5 5 5 5 5 5 6
7 6 6 6 7 7 6 5 6 6 5 4 4 4 4 4 3 3 3 3 3 2 2 1 1 0 1 1 2 3 4 4 5 5 5 5 5 5 4 4 4 4 4 5 5 5 6 5 4 4 4 5 5 5 5 6 5 5 5 5 5 5 5 5 5 5 5 5 5
5 5 6 6 7 7 6 5 6 6 5 4 4 4 4 3 3 3 3 3 2 2 2 1 1 2 2 3 4 4 5 5 5 6 6 6 6 5 5 4 5 5 5 5 6 6 6 5 4 4 5 5 5 6 6 6 6 6 6 5 5 5 5 5 5 5 5 6 6
5 5 6 7 7 6 6 5 5 5 5 4 5 5 4 4 4 4 3 2 2 2 2 2 2 2 3 4 4 4 5 5 6 7 7 7 6 5 5 5 5 6 6 6 6 7 6 6 5 5 5 5 5 6 7 7 6 6 7 7 6 5 5 6 5 5 6 7 8
5 5 6 6 7 6 6 5 5 4 4 4 4 4 4 4 4 3 2 2 1 1 1 1 2 2 3 4 4 5 6 7 7 7 7 6 5 5 5 6 6 6 7 7 7 7 7 6 5 5 5 5 5 6 7 8 8 8 8 8 7 6 5 6 5 6 6 8 8
5 5 5 6 6 6 6 6 5 4 4 4 4 4 3 3 3 2 2 1 0 0 0 1 2 3 4 5 5 6 7 7 7 7 6 5 5 5 6 6 6 7 7 7 7 8 8 7 6 6 6 6 6 6 7 8 9 9 9 8 7 6 6 6 6 6 7 8 9
5 5 5 5 6 6 6 5 5 4 4 3 3 3 3 3 2 2 1 0 0 0 1 1 2 3 4 6 6 7 7 6 6 5 5 5 5 5 6 6 6 7 7 7 7 7 7 6 6 6 6 6 7 7 8 8 8 8 8 6 6 7 7 7 7 7 8 8 9
5 4 4 4 5 5 5 4 4 3 3 3 3 3 2 2 1 1 1 1 1 1 2 2 3 4 5 6 6 6 5 5 4 4 4 5 5 5 6 6 6 7 7 7 6 5 5 5 6 6 7 6 6 7 7 7 7 8 8 6 7 7 8 8 8 7 8 8 9
4 4 4 4 5 5 4 3 3 2 3 3 2 2 2 1 1 0 0 1 1 2 3 3 4 5 5 5 5 4 4 4 4 4 4 5 5 5 6 6 6 7 7 7 6 5 5 5 6 7 7 7 6 6 6 7 7 8 8 7 7 7 8 8 8 7 7 7 9
4 4 4 4 4 4 4 3 3 2 3 3 2 2 2 1 1 1 1 2 3 3 4 4 4 4 4 4 3 3 3 3 4 4 4 5 5 6 6 6 7 7 7 7 6 6 6 7 7 8 9 8 7 7 7 8 8 8 8 8 8 8 8 9 8 8 7 7 8
4 4 4 4 4 4 3 3 3 3 3 3 3 3 2 2 2 3 3 3 4 3 3 3 2 2 2 3 3 3 3 4 4 4 5 6 6 6 7 7 7 8 8 7 6 6 7 7 8 8 9 9 9 8 8 8 8 8 8 8 9 9 9 9 8 8 7 8 8
4 4 4 4 4 4 3 3 3 3 3 3 3 3 3 3 3 2 2 2 2 1 1 2 2 2 2 3 3 4 4 4 5 5 6 6 7 7 7 8 8 8 8 7 7 7 7 8 8 8 8 9 9 9 9 8 8 8 8 8 9 9 9 9 8 8 8 8 8
5 5 5 5 5 4 4 4 3 3 3 3 2 2 1 1 0 0 1 2 2 3 3 4 4 3 3 3 4 4 4 5 5 6 6 7 7 8 8 8 8 8 8 8 7 7 7 7 7 8 8 9 9 9 9 9 9 9 9 9 9 9 9 9 9 9 9 9 8
5 5 5 5 5 5 4 3 2 2 2 1 1 1 2 2 3 3 4 5 5 5 5 5 5 4 4 4 4 4 4 5 6 6 7 7 8 8 8 8 8 7 7 7 8 8 8 8 8 8 8 9 9 9 10 10 10 10 10 10 10 10 10 10 10 10 10 10 9
4 4 4 4 4 4 3 2 2 2 2 3 4 4 5 5 5 5 5 5 5 5 6 6 6 5 5 5 5 4 4 5 6 7 7 7 7 7 7 7 7 7 7 7 8 8 9 9 9 9 9 9 9 10 10 10 10 10 11 11 11 11 11 11 10 10 9 9 8
3 3 3 3 3 3 3 4 4 5 5 6 6 6 6 7 6 6 5 5 5 6 6 7 6 6 5 6 5 5 5 5 6 7 7 7 7 7 7 7 7 7 8 8 8 9 9 10 10 10 10 10 10 10 10 10 10 11 11 11 11 11 11 11 10 9 8 7 7
3 4 4 4 4 5 6 6 7 7 7 7 8 7 7 6 6 6 6 6 6 6 6 6 6 6 6 6 6 5 5 5 6 7 7 7 7 7 7 8 8 8 8 8 9 9 10 10 10 10 10 10 10 11 11 11 11 11 11 11 11 11 11 10 9 8 7 7 7
5 5 6 6 7 7 7 8 8 8 8 8 7 6 6 6 7 7 7 7 7 6 6 5 5 5 5 5 6 6 5 5 6 6 7 7 7 8 8 8 8 9 9 9 9 10 10 10 10 10 10 10 10 11 11 10 11 11 11 10 10 9 9 8 8 8 7 7 8
6 6 6 7 7 7 7 7 7 6 5 5 5 6 7 8 8 8 8 7 5 4 4 4 4 4 5 5 6 6 6 5 6 6 7 7 8 8 8 8 8 9 9 9 10 10 10 10 10 10 10 10 10 10 10 11 11 11 11 10 9 9 9 9 9 9 9 9 9
6 6 6 6 6 5 5 4 3 1 2 4 6 8 9 10 9 8 7 4 3 2 2 3 3 4 4 5 5 6 6 6 7 7 7 8 8 8 9 8 8 9 9 9 9 9 9 9 10 10 9 9 10 10 10 10 9 9 9 9 9 9 10 10 10 10 10 10 10
5 4 4 4 4 4 3 2 2 3 5 8 9 11 11 10 8 5 3 2 2 2 2 3 3 4 5 5 6 6 7 7 8 8 8 8 8 9 9 8 8 8 8 8 8 9 9 8 8 8 9 8 8 7 7 7 7 7 8 8 9 9 10 10 10 10 10 11 11
4 4 4 3 4 4 4 5 6 8 9 11 11 11 9 7 4 3 1 1 2 3 3 4 4 5 5 6 6 7 7 7 8 8 8 9 9 8 8 8 7 7 7 7 10 11 12 10 9 8 7 6 5 5 5 5 6 7 7 8 9 9 9 10 10 10 11 12 12
5 4 4 4 4 5 6 8 9 10 11 11 9 7 5 4 2 1 1 2 3 3 4 5 5 5 5 5 6 6 7 6 7 7 8 8 8 8 8 7 7 6 6 8 10 12 13 13 10 7 5 3 3 4 4 5 6 7 7 8 8 9 9 10 11 11 12 12 13
4 4 4 5 6 7 9 10 10 10 9 7 5 4 3 2 1 0 1 2 3 4 4 4 4 4 4 5 5 6 6 6 7 7 8 8 8 8 8 8 7 6 6 8 10 11 12 11 9 7 4 3 3 4 4 5 6 7 8 9 9 9 10 11 12 12 13 13 14
4 5 5 6 7 8 9 9 8 7 6 4 4 3 2 1 0 1 2 3 4 4 4 4 4 4 4 4 5 6 7 7 7 7 8 8 8 8 8 7 6 6 7 9 10 11 10 9 8 7 6 5 4 4 5 5 6 7 8 9 9 10 11 11 11 12 13 14 14
5 6 7 7 7 8 7 6 5 5 4 3 2 2 1 0 1 2 3 4 4 4 4 4 4 3 3 4 6 6 7 7 7 7 7 8 8 8 7 7 7 7 9 10 10 10 9 9 9 9 9 8 6 5 5 5 6 7 8 9 10 10 11 11 11 12 12 13 13
6 6 6 6 6 5 4 4 4 3 3 2 1 1 0 1 2 3 3 4 4 4 4 4 4 4 5 6 6 6 7 7 7 7 6 7 7 7 7 7 7 7 8 10 10 9 9 10 10 11 11 11 8 6 6 6 6 7 8 9 10 11 11 11 12 12 12 12 13
5 4 4 4 4 4 3 3 3 2 2 1 1 0 1 2 2 3 3 4 4 5 5 4 5 6 7 7 6 6 7 7 7 6 6 7 7 8 8 8 7 7 8 9 9 9 10 11 12 12 13 13 10 8 7 7 8 8 8 9 10 11 12 12 12 13 14 14 13
4 4 4 4 4 4 4 3 2 1 1 1 0 1 1 2 3 3 3 4 5 5 5 5 6 7 7 7 6 6 6 6 6 7 7 7 7 7 7 7 7 7 7 8 9 10 11 12 13 14 15 15 12 10 8 9 9 9 10 11 12 13 13 12 13 14 15 15 14
4 4 5 5 6 5 4 3 1 1 1 1 1 1 2 2 3 4 4 5 5 5 6 5 6 6 6 6 6 6 6 7 7 7 7 7 7 7 7 7 6 6 7 8 9 10 12 13 14 15 16 16 13 10 9 9 9 9 10 11 12 13 14 14 14 15 15 16 15
5 5 6 7 6 5 3 1 1 2 1 1 1 2 2 3 4 5 6 6 6 6 5 5 5 5 5 5 5 6 6 6 7 7 7 8 7 7 6 5 5 5 7 8 10 12 13 15 16 17 17 17 12 10 10 11 10 10 11 12 13 14 14 15 16 16 16 16 15
6 6 6 6 4 2 1 2 2 2 2 1 2 2 3 5 6 7 8 8 6 5 4 4 4 4 4 5 5 5 6 6 7 7 8 7 6 6 5 5 4 6 8 9 11 13 15 16 17 18 18 16 11 9 10 11 11 11 12 13 14 15 16 16 16 16 16 16 15
6 5 4 2 1 1 2 2 2 2 2 2 3 4 5 7 7 8 8 7 6 5 4 4 4 4 4 5 5 5 6 6 7 7 7 6 5 5 5 5 5 6 8 10 12 14 16 18 19 19 18 14 10 9 9 10 10 11 13 14 15 16 16 16 16 15 15 14 15
3 2 2 3 3 3 3 3 3 4 4 4 5 5 6 8 8 8 7 5 4 4 4 4 4 5 5 5 5 6 6 6 7 7 7 6 4 4 4 5 5 6 8 11 13 16 18 19 20 20 18 13 10 9 10 9 9 10 12 14 15 15 15 14 14 13 13 13 13
3 4 5 4 3 3 3 4 5 5 5 6 6 6 7 8 8 7 5 3 3 4 4 4 5 5 5 6 6 7 7 7 6 6 6 5 4 3 4 5 5 6 8 11 14 17 19 20 21 21 18 13 11 10 9 9 9 10 11 12 13 13 12 10 9 8 9 9 10
6 6 5 5 4 4 5 5 5 5 5 6 6 8 8 8 6 5 4 3 3 3 4 4 5 6 6 7 6 6 6 7 6 5 4 4 3 3 4 5 6 7 9 12 15 18 19 21 21 21 19 14 11 10 9 9 10 10 11 10 9 9 8 6 5 5 5 6 9
6 6 6 5 5 5 5 5 5 5 5 6 8 8 8 6 4 4 3 3 3 3 4 4 6 6 7 7 7 6 6 6 6 4 3 3 3 4 5 5 6 8 10 13 16 18 20 21 22 22 20 14 11 9 8 8 8 8 8 7 6 6 6 6 5 5 6 7 9
6 6 6 6 5 4 4 4 5 6 7 7 7 6 5 4 3 3 3 3 3 4 4 5 6 7 7 7 6 6 6 6 5 4 3 2 3 5 6 5 7 8 9 12 15 18 20 21 22 22 20 14 10 7 6 6 6 6 6 7 7 7 7 7 7 7 7 8 9
Wind_Direction
46 55 68 80 85 86 83 78 75 77 81 84 85 85 83 82 80 76 72 71 71 72 72 69 69 65 58 52 37 325 284 280 288 296 300 300 295 291 288 285 283 281 280 280 284 287 291 293 294 294 292 288 288 288 287 287 289 290 290 290 290 290 289 289 287 286 284 283 281
43 46 51 59 67 74 78 79 75 74 76 80 81 80 79 79 77 75 73 73 72 69 66 64 65 62 55 34 351 289 289 298 306 307 305 299 292 287 283 279 275 272 272 275 279 282 283 283 283 284 284 284 285 285 284 282 282 284 286 285 284 285 286 285 283 281 280 280 280
46 47 50 57 63 69 74 79 77 75 74 75 75 76 78 80 81 80 79 78 73 68 65 63 61 62 57 351 314 306 309 311 311 306 301 294 287 281 275 269 269 269 269 270 272 272 271 269 271 273 276 280 280 279 279 279 278 278 279 279 279 280 281 280 279 278 279 279 279
51 52 56 63 68 70 71 75 74 73 73 73 74 75 77 80 83 82 79 71 63 62 63 67 64 65 57 352 333 329 324 318 311 303 295 287 278 270 264 260 263 266 267 267 267 267 266 265 267 270 272 273 273 273 274 275 275 274 273 274 275 275 275 275 275 275 276 276 277
56 59 65 70 73 74 74 75 77 77 77 78 78 78 79 81 81 79 74 66 63 62 65 71 65 38 354 348 338 330 323 316 307 297 287 277 267 261 257 257 259 262 264 264 264 265 265 266 269 271 271 270 270 270 270 270 272 273 273 273 273 273 272 272 273 272 273 274 275
72 73 75 78 78 79 81 81 84 85 85 83 85 84 83 82 80 78 75 73 68 60 50 39 14 354 344 343 334 325 317 308 297 285 274 264 258 256 257 259 260 262 263 264 264 265 265 266 272 274 273 271 271 270 269 268 270 272 273 273 271 270 270 270 270 271 272 272 273
91 88 87 88 88 88 89 87 86 86 86 84 87 87 86 82 79 79 78 74 61 43 26 13 352 341 334 330 321 311 301 291 280 270 261 255 253 254 257 260 262 263 264 264 265 266 267 265 270 273 273 272 272 270 267 266 265 266 268 268 267 267 266 267 268 270 270 271 272
103 102 101 99 98 97 95 92 87 85 83 83 87 90 90 86 83 82 79 72 59 40 5 345 327 319 313 307 296 286 277 269 264 259 254 251 254 257 260 262 264 266 266 266 267 267 268 267 269 270 270 270 270 268 265 262 260 260 261 262 263 263 263 265 267 268 270 271 273
116 113 108 104 103 102 100 96 93 91 88 88 92 96 98 95 94 91 89 88 110 251 299 308 305 300 294 285 276 268 262 258 255 253 252 252 255 258 261 264 266 268 269 268 268 268 268 269 269 268 267 266 266 265 263 260 259 258 259 260 262 262 262 263 264 266 268 270 272
128 120 111 105 104 103 100 97 94 93 93 93 94 96 96 96 96 100 106 132 64 327 314 302 296 289 281 273 267 261 256 252 249 249 250 252 254 257 261 265 268 270 271 271 271 270 270 271 271 270 268 266 265 265 264 262 261 260 261 263 264 265 266 265 265 266 267 269 270
126 119 112 109 108 104 99 95 92 92 94 96 94 92 91 89 90 90 83 52 0 322 297 285 279 274 269 264 260 255 250 245 242 244 249 254 257 260 264 267 270 272 275 276 276 275 275 274 274 272 271 270 269 268 268 267 265 264 264 267 268 269 270 270 269 268 268 269 269
112 110 109 110 109 105 101 101 100 100 101 104 105 104 102 104 110 100 2 334 296 280 271 265 261 258 256 254 249 245 241 239 243 248 255 263 267 270 273 275 277 280 282 283 284 285 286 285 284 282 281 280 278 277 277 275 274 274 274 275 275 275 275 275 273 272 271 270 270
108 109 110 113 110 109 108 112 116 119 123 128 135 140 147 161 182 210 236 250 251 252 252 252 250 247 245 243 243 244 250 255 261 268 273 277 279 281 283 284 286 287 289 290 291 293 294 293 292 292 292 291 290 289 287 285 285 284 284 284 284 282 281 279 278 277 275 274 273
123 125 126 125 121 119 122 129 137 144 150 159 168 173 180 192 205 215 224 232 236 240 245 252 252 250 249 254 263 271 276 279 283 285 286 286 286 286 287 288 289 290 292 293 293 294 295 295 296 296 296 296 295 294 293 292 291 290 289 288 287 286 285 284 283 283 282 281 279
144 145 143 139 137 138 143 151 159 166 172 181 187 189 192 202 208 211 216 232 246 261 286 306 302 294 289 288 289 289 290 290 290 290 289 288 287 287 288 288 290 291 292 294 295 296 296 296 297 297 297 297 297 297 297 296 295 293 292 291 290 289 289 288 288 288 287 285 283
160 159 155 150 151 155 160 167 174 178 183 189 189 186 183 193 185 41 19 3 352 345 338 328 318 311 305 299 294 292 291 290 289 288 287 286 286 287 287 288 290 291 293 295 297 297 297 297 297 297 297 297 298 298 298 297 296 295 293 292 291 291 290 290 290 289 287 285 284
169 167 163 159 160 163 166 172 173 171 165 148 95 63 47 32 23 15 6 357 347 338 328 319 312 307 301 296 291 288 287 287 285 284 284 284 285 286 287 288 290 291 294 296 298 298 298 298 297 297 297 296 296 296 296 295 294 293 292 291 290 289 289 288 287 287 286 285 285
168 164 159 155 155 152 148 140 117 87 65 51 42 35 27 19 10 1 350 339 329 320 313 307 302 297 291 287 284 283 282 283 282 282 282 283 285 286 288 290 291 293 295 297 297 297 297 296 296 295 295 294 293 292 292 291 290 289 288 288 287 286 285 284 284 284 285 287 290
134 126 121 118 113 102 86 69 57 48 41 36 29 22 13 5 353 339 323 311 303 299 296 294 291 288 283 280 280 281 281 282 283 283 284 286 288 290 292 293 294 295 296 296 295 294 293 292 292 291 290 289 288 288 287 286 285 285 284 283 283 282 282 282 282 284 286 290 293
80 71 65 60 58 54 49 44 39 33 29 25 18 9 356 339 320 304 292 286 283 282 281 281 280 280 280 281 284 285 286 286 288 289 290 291 293 293 293 294 294 294 294 293 291 290 289 288 287 286 285 284 283 283 282 282 281 280 279 279 279 279 280 281 283 285 287 288 289
58 52 47 43 42 40 38 35 32 27 21 14 0 340 317 297 284 276 272 270 269 270 270 271 273 277 281 286 289 290 291 292 293 293 293 294 293 292 292 292 292 292 290 289 287 285 284 282 282 281 280 279 278 278 277 277 278 277 277 278 278 279 280 282 283 283 283 283 282
58 54 51 48 46 44 42 38 33 25 11 347 314 290 277 269 264 261 259 259 261 263 265 267 273 279 284 288 290 292 293 295 295 294 293 293 292 291 290 289 288 287 286 284 282 280 279 278 277 276 275 275 274 274 274 275 276 278 280 281 283 284 285 284 284 284 284 284 283
68 67 66 66 67 66 63 58 51 21 293 268 261 257 254 253 252 252 253 254 256 263 271 278 284 287 289 289 291 293 295 297 296 294 292 291 289 288 287 286 284 282 280 279 278 277 276 276 275 273 272 271 271 272 273 276 280 283 287 290 291 291 290 289 289 289 288 287 286
89 92 96 100 102 105 110 125 175 217 232 239 241 242 243 244 246 246 249 254 271 288 294 297 295 294 294 295 294 295 295 295 294 293 291 289 287 285 284 283 281 278 276 275 274 272 271 271 272 272 272 272 274 278 282 286 291 294 295 295 295 294 292 291 290 288 287 285 283
122 129 134 135 137 148 167 189 206 218 225 230 233 236 238 239 237 235 245 286 304 305 303 300 298 297 297 297 296 294 292 289 288 288 287 287 285 283 282 281 279 277 276 274 273 271 270 270 272 275 280 284 291 297 301 302 300 299 297 295 294 292 291 288 285 283 281 279 279
154 159 164 168 179 192 201 207 213 219 224 228 230 231 229 225 219 224 283 313 307 302 298 296 296 296 296 295 294 292 289 286 284 283 283 284 284 283 282 281 279 278 277 276 275 275 275 275 277 281 290 301 307 309 307 302 299 296 294 293 291 290 288 286 284 282 281 280 281
173 181 190 198 204 210 214 216 219 222 224 225 222 218 214 209 210 290 315 307 299 296 294 294 293 291 291 291 291 289 287 284 282 281 280 280 281 282 281 281 280 279 278 278 278 279 280 282 286 292 300 308 307 305 302 300 298 296 294 292 290 288 286 285 285 285 285 284 283
189 201 209 211 215 218 220 222 222 222 220 214 207 202 200 194 301 315 308 301 297 296 295 292 289 288 288 290 287 284 282 282 282 281 280 280 280 280 280 280 279 278 278 279 280 282 286 291 299 307 314 316 310 304 300 298 297 296 294 291 290 288 287 286 286 285 285 284 282
203 210 215 217 218 220 221 221 218 215 210 201 194 185 179 337 316 309 303 300 297 294 291 287 287 289 291 288 284 283 282 281 280 280 281 281 281 281 280 279 278 278 279 281 284 288 295 303 311 316 318 318 313 306 301 298 296 295 293 292 290 288 287 285 283 281 279 278 276
211 212 215 217 219 220 221 219 216 211 202 187 170 154 30 323 311 305 301 297 291 286 282 281 287 288 286 283 283 283 282 281 280 280 281 282 283 282 282 280 280 281 283 286 290 297 305 314 318 319 319 319 315 309 303 298 296 294 292 290 287 283 280 277 275 273 271 270 269
215 215 219 225 232 236 238 236 226 211 189 157 132 75 326 309 300 296 293 290 285 283 282 285 287 285 283 281 282 282 281 281 283 283 283 283 282 283 283 283 283 284 287 292 299 308 315 321 321 320 319 318 314 309 303 297 293 290 287 284 280 277 274 271 269 268 266 265 266
222 227 233 241 246 247 247 242 228 203 158 113 73 335 307 296 291 291 291 291 289 289 289 289 287 286 285 284 284 284 284 285 286 286 285 284 284 285 286 287 287 288 292 300 310 318 322 323 322 320 318 317 312 306 300 295 290 286 282 278 275 272 270 269 268 267 266 265 264
230 235 239 242 242 242 240 230 200 144 99 63 1 319 303 299 303 306 304 299 293 289 287 285 285 284 284 285 286 287 288 288 288 287 287 286 286 287 289 290 290 294 302 312 320 324 324 323 321 318 316 314 309 303 297 291 287 283 279 276 273 270 268 266 265 265 264 263 263
235 239 241 241 239 235 224 177 124 95 72 34 348 326 321 324 326 319 310 299 290 284 280 279 278 279 279 282 285 289 290 291 291 290 289 288 288 290 292 293 294 304 314 322 324 324 323 321 318 316 313 310 306 300 293 289 285 281 278 275 273 270 268 265 264 263 262 261 261
238 241 244 244 238 219 153 104 88 77 59 28 353 343 340 340 328 315 302 289 283 280 279 279 279 281 284 287 289 290 292 292 291 290 289 289 292 293 294 295 298 311 320 325 324 323 321 318 316 314 311 308 303 296 291 288 284 280 277 275 273 270 268 266 265 263 261 260 259
239 239 237 222 148 99 87 76 67 56 43 24 3 351 342 332 314 298 287 279 278 280 284 287 290 293 295 296 294 292 291 289 290 291 291 291 294 296 299 300 305 315 322 324 323 321 319 317 315 312 310 306 300 294 291 288 284 281 278 276 274 271 269 267 265 263 261 260 259
227 178 126 101 87 78 69 62 51 38 24 11 356 340 324 308 292 283 276 275 281 287 290 293 296 296 294 292 292 290 288 286 289 291 293 294 295 298 303 308 311 317 320 323 322 320 319 317 314 312 309 304 299 295 292 289 286 282 280 278 276 274 272 270 268 265 263 262 261
102 99 97 88 78 66 56 48 36 22 7 351 333 313 297 285 279 276 274 277 287 293 295 296 295 293 290 288 288 288 288 288 289 291 293 294 293 300 310 316 317 317 320 322 322 320 319 316 313 311 308 303 300 297 294 290 287 285 283 282 281 280 279 278 276 273 269 266 266
88 88 85 79 68 53 40 29 16 360 339 318 300 287 279 274 274 275 279 284 290 292 293 294 292 290 289 289 291 293 294 293 292 291 289 289 293 307 321 324 320 319 320 323 322 320 317 314 311 310 308 303 301 298 295 291 288 286 286 287 290 293 296 298 297 294 288 281 280
78 75 70 64 52 38 22 3 340 316 296 284 278 275 273 272 275 281 288 294 294 293 292 292 291 290 291 293 295 296 298 298 297 293 287 285 302 322 331 328 322 320 320 322 321 318 314 312 310 309 308 304 304 301 297 294 292 293 297 307 317 324 326 324 318 311 303 295 291
66 61 54 46 35 16 346 312 292 281 275 272 271 271 273 276 282 291 298 301 299 296 295 294 293 293 294 296 298 299 300 301 299 296 292 297 318 331 334 329 324 322 321 320 317 314 311 309 309 309 310 308 309 307 303 302 305 313 324 335 335 331 326 320 314 307 301 297 294